Location: Unspecified
(0.0000°N, 0.0000°E)
Time: 19:06:16
(UTC+00:00)

Eole - Visible Passes

Search period start: 17 May 2026 00:00
Search period end: 27 May 2026 00:00
Orbit: 621 x 764 km, 50.1° (Epoch: 17 May)

Date Brightness Start Highest point End Pass type
(mag) Time Alt. Az. Time Alt. Az. Time Alt. Az.
21 May 9.3 20:07:56 10° SW 20:08:16 12° SW 20:08:16 12° SW visible
22 May 7.4 19:06:19 10° SSW 19:10:51 33° SE 19:11:22 32° ESE visible
22 May 9.8 20:50:10 10° W 20:50:13 10° W 20:50:13 10° W visible
23 May 7.5 19:46:45 10° SW 19:51:39 52° NW 19:54:33 22° NNE visible
24 May 6.8 18:44:35 10° SSW 18:49:35 56° SE 18:54:21 10° NE visible
24 May 9.8 20:30:48 10° WNW 20:32:25 11° NW 20:34:00 10° NNW visible
25 May 8.6 19:25:54 10° WSW 19:30:20 31° NW 19:34:35 10° N visible
26 May 6.9 18:23:08 10° SW 18:28:17 85° NW 18:33:10 10° NE visible
